Theta_e
327 325 324 322 320 319 317 315 313 311 309 309 309 308 308 308 307 307 306 306 305 305 305 304 304 304 303 303 302 301 299 296 296 296 295 295 295 294 294 293 293 293
326 324 323 321 319 316 315 313 311 309 308 308 308 308 307 307 307 307 306 306 306 305 305 304 304 304 303 302 302 300 298 296 295 295 295 295 294 294 294 294 293 292
325 323 322 321 318 315 312 310 309 308 307 307 308 307 306 306 306 306 306 306 305 305 304 304 303 303 303 302 301 300 297 296 295 295 295 295 295 294 294 293 292 292
323 322 321 319 317 314 311 308 307 306 307 307 307 307 306 306 305 306 306 305 305 305 304 304 303 303 302 301 300 299 297 296 295 295 295 295 295 294 293 293 292 292
323 322 320 317 315 313 309 307 306 306 306 306 306 306 306 306 305 305 305 305 305 304 304 303 302 302 302 301 300 299 297 296 295 295 295 296 295 294 293 292 292 292
322 320 318 316 314 312 309 307 306 305 306 306 306 306 306 305 305 305 305 305 304 304 303 303 302 302 301 301 300 299 297 295 295 295 295 295 295 294 293 293 292 292
320 318 316 315 313 311 309 307 305 305 305 306 306 305 305 305 305 304 304 304 304 304 303 303 302 302 301 301 299 297 296 295 295 295 295 295 294 294 294 293 292 292
319 317 315 314 311 309 308 306 305 305 305 305 305 305 305 304 304 304 304 304 304 303 303 303 302 302 301 300 298 295 295 295 295 296 296 295 294 294 294 293 292 292
318 316 314 312 310 308 307 306 305 304 304 305 305 305 304 304 304 304 304 303 303 303 303 303 302 302 301 300 298 296 296 296 296 297 296 296 295 295 294 294 292 292
316 314 312 310 309 307 306 306 305 304 304 304 304 304 304 304 304 303 303 303 303 303 303 302 302 302 301 300 299 297 297 297 297 297 297 296 296 295 295 294 293 293
314 312 311 309 307 306 306 305 305 304 304 304 303 303 303 304 304 303 303 303 303 303 303 302 302 301 301 300 299 298 298 298 298 297 297 297 296 296 295 294 293 293
312 311 309 308 307 306 305 305 305 304 304 303 303 303 303 303 303 304 303 303 303 303 302 302 302 301 301 300 299 298 298 298 298 298 297 297 296 296 295 294 293 293
311 310 309 308 307 306 305 305 304 304 304 303 303 302 301 302 303 303 303 303 303 303 303 302 302 301 301 300 300 299 299 299 299 298 297 297 296 296 296 294 293 293
310 309 308 307 306 305 305 304 304 304 303 302 302 300 299 299 302 303 303 303 303 303 303 303 302 302 301 300 300 300 299 299 299 299 298 297 297 296 296 294 293 294
309 308 307 306 306 305 304 304 303 303 303 302 302 300 296 296 300 302 303 303 303 303 303 303 302 302 301 300 300 299 299 299 299 299 298 298 297 296 296 295 294 294
308 307 306 305 305 304 304 303 303 302 302 302 300 297 294 294 298 301 302 303 303 303 302 302 302 301 301 300 299 299 299 298 299 299 298 298 297 296 296 295 295 295
307 306 305 305 304 304 303 303 303 302 302 300 296 294 293 294 297 299 301 302 303 302 302 302 302 301 300 300 300 299 299 298 298 298 298 298 297 296 296 296 295 294
306 305 305 304 303 303 303 302 302 302 300 297 294 293 294 294 296 299 301 302 302 302 302 302 301 301 301 300 300 299 299 298 298 298 297 298 297 297 296 296 296 294
306 305 304 303 303 303 302 302 301 301 300 296 293 293 294 295 296 298 300 301 301 301 301 301 301 301 301 300 300 299 299 299 298 298 298 297 297 297 296 296 296 294
305 304 303 303 303 302 302 302 301 301 299 295 293 293 294 295 296 298 299 300 301 301 301 301 300 300 300 300 300 299 299 299 299 299 298 297 297 297 296 296 296 294
304 304 303 302 302 302 302 302 302 300 297 294 293 293 294 294 296 297 298 299 300 300 300 300 300 299 299 299 299 299 299 299 299 299 298 298 297 297 297 296 295 294
304 303 303 302 302 302 302 302 301 298 295 293 293 293 294 295 296 297 298 298 299 299 299 299 299 298 298 299 298 298 298 298 298 298 298 298 297 297 297 296 294 294
304 303 303 302 302 301 302 301 300 297 294 292 292 293 294 295 296 297 298 298 298 298 298 298 298 298 297 296 295 294 295 296 298 298 298 297 297 297 296 295 294 295
303 303 303 302 302 301 302 300 299 298 295 293 292 293 293 294 295 296 297 297 298 298 298 297 296 295 293 292 292 292 294 295 297 297 297 297 297 297 295 294 294 295
303 303 302 302 301 302 301 300 299 299 296 293 292 293 293 294 295 296 297 297 297 297 296 294 293 291 291 290 291 292 293 294 296 297 297 297 297 297 295 294 294 295
303 303 303 302 302 301 301 300 300 299 297 293 292 293 293 293 294 294 294 294 294 293 292 291 290 290 290 290 290 291 291 293 294 295 296 296 296 296 295 294 295 295
Wind_Speed
22 21 19 18 16 14 13 13 13 14 15 16 17 18 18 17 17 16 17 17 17 17 17 17 17 18 19 20 20 22 23 24 24 24 24 25 25 25 25 25 24 24
21 20 19 18 16 15 14 13 13 15 17 17 17 18 18 18 17 17 17 18 18 17 17 17 17 18 19 19 20 21 23 24 25 23 23 24 24 24 24 23 23 22
21 21 20 18 17 16 15 15 15 16 17 18 18 18 18 18 17 17 18 18 18 18 17 17 17 18 18 19 19 21 23 24 24 23 23 24 23 24 23 22 22 22
21 21 20 18 17 17 17 17 18 18 18 19 19 19 19 18 18 18 19 19 19 18 17 17 18 18 18 18 19 21 22 23 23 22 23 24 22 23 22 21 22 22
21 21 20 19 18 18 18 18 19 19 19 20 20 19 19 19 19 19 20 19 19 19 18 18 18 18 18 18 19 21 22 22 22 21 23 23 21 21 21 21 22 22
21 21 21 20 20 19 19 19 19 20 20 20 20 20 20 19 19 19 20 20 19 19 18 19 19 18 18 18 19 20 21 22 22 22 23 22 20 19 19 20 22 22
22 22 22 22 21 20 20 20 20 21 21 21 21 20 20 19 19 20 20 20 19 19 19 19 19 19 18 18 19 19 20 22 22 22 22 21 20 19 19 20 21 21
23 23 23 22 22 21 21 21 21 21 21 21 21 21 20 19 19 20 19 19 19 19 19 19 19 19 18 17 18 20 21 21 21 21 21 20 19 19 19 19 20 20
24 25 24 23 23 22 22 22 22 22 22 22 21 21 20 19 19 19 19 19 19 19 20 19 19 18 17 16 17 19 20 20 19 19 19 19 18 18 18 18 18 19
26 26 25 24 23 23 23 23 23 23 23 22 21 20 19 19 18 19 19 19 20 20 20 20 19 18 16 15 16 16 18 18 17 16 16 16 16 17 17 17 17 17
27 26 25 25 25 24 24 24 24 25 23 21 20 20 19 19 19 19 19 19 20 20 20 20 18 17 16 16 15 15 15 15 14 14 14 14 14 15 15 16 16 16
27 27 26 25 25 25 25 25 26 25 24 21 19 19 18 19 19 20 20 20 20 19 19 19 18 16 16 15 15 15 14 13 12 11 11 12 12 12 14 14 15 15
28 27 27 26 26 26 26 27 26 25 22 20 18 17 17 19 20 21 20 20 19 19 18 18 17 17 15 15 14 13 12 11 10 9 9 10 10 10 12 13 14 14
28 27 27 27 27 27 27 27 26 24 21 19 17 15 16 19 21 22 21 20 19 18 17 17 17 17 15 14 13 12 11 10 8 8 8 8 8 9 11 12 12 13
28 28 28 28 28 29 28 27 25 23 20 18 16 15 16 19 21 22 22 21 20 18 17 17 17 17 15 13 13 12 10 9 8 8 7 7 7 8 10 11 11 11
29 29 29 29 29 29 29 27 25 22 20 17 15 15 17 19 21 22 22 21 20 19 18 17 17 17 15 13 12 11 10 9 9 8 8 6 6 7 8 9 9 9
31 30 30 30 30 30 29 27 25 22 19 16 16 17 18 19 21 21 22 21 20 20 19 18 17 16 15 13 11 10 9 9 9 8 8 7 5 5 6 6 6 7
32 31 31 31 31 30 29 27 24 21 19 17 18 19 19 20 20 21 22 21 20 20 19 18 17 16 15 13 11 10 9 8 8 7 6 6 6 4 3 3 5 7
33 33 33 32 32 31 29 27 24 21 19 18 19 20 20 20 20 21 21 21 20 20 19 18 17 15 14 13 11 10 9 8 7 6 5 6 6 4 2 1 4 6
34 34 34 33 33 31 29 26 24 21 19 19 20 21 21 21 21 21 21 21 20 20 19 17 16 14 13 12 11 10 8 7 7 6 5 5 6 5 2 1 4 6
35 35 34 34 33 32 30 27 24 21 20 20 20 21 21 21 22 22 21 21 20 19 19 17 15 14 12 11 10 9 8 7 7 6 6 5 6 6 3 2 3 4
36 36 35 35 34 33 31 28 25 22 21 21 21 21 21 21 22 22 22 21 20 19 18 17 15 13 11 10 9 8 8 8 8 7 6 5 6 5 3 1 2 4
38 37 36 36 35 34 32 29 26 24 22 21 22 22 22 22 22 22 22 21 20 19 18 16 15 12 10 8 8 8 9 10 9 8 7 6 6 5 3 1 1 3
35 36 36 36 36 34 33 30 28 25 22 21 22 22 23 23 23 22 22 20 19 18 16 14 13 11 8 7 7 7 8 10 10 9 8 7 6 5 3 2 1 3
32 32 33 34 34 34 33 31 29 26 22 21 21 22 23 23 23 22 21 19 18 16 14 13 12 11 9 7 7 7 7 8 9 9 9 8 7 5 5 4 2 2
34 34 33 33 33 33 33 31 29 26 23 22 22 22 23 24 23 22 21 19 18 16 15 14 13 12 10 8 7 7 7 7 8 8 8 9 8 7 6 5 3 2
Wind_Direction
182 181 176 170 165 163 159 154 154 155 155 155 151 148 145 142 142 142 138 132 127 122 118 116 115 113 111 105 99 94 92 94 97 98 96 93 90 86 80 75 70 68
182 179 174 168 163 159 156 155 156 157 156 155 153 149 145 144 144 143 140 135 129 125 121 118 118 117 113 107 102 97 97 99 100 101 97 93 90 84 79 74 69 67
181 177 173 170 164 158 154 154 156 157 157 155 153 150 147 147 146 144 143 138 132 128 125 122 120 120 116 111 105 100 100 102 103 102 97 91 86 81 77 74 70 67
177 175 174 171 165 159 155 154 156 159 159 156 153 152 152 150 149 146 144 140 136 133 129 125 124 124 120 114 108 103 101 103 105 102 96 89 83 79 75 73 72 66
176 175 173 170 165 160 158 157 159 161 161 158 156 157 157 155 153 149 146 143 140 137 133 129 128 127 123 117 110 105 104 105 105 100 94 90 83 78 74 72 70 64
175 174 172 170 166 162 161 161 163 164 162 159 159 161 161 159 156 152 149 146 143 141 138 134 132 129 125 120 112 107 107 107 104 98 93 90 86 80 74 68 66 63
174 173 171 169 166 164 163 163 165 165 163 162 162 163 163 161 158 155 152 150 147 145 143 139 136 132 128 122 115 111 110 107 102 97 93 91 87 80 73 67 64 64
173 172 170 168 165 165 165 166 167 165 164 164 164 164 166 165 160 158 156 154 152 150 148 144 140 135 131 125 117 113 112 108 102 98 95 91 86 79 72 66 64 65
171 170 169 168 166 167 168 169 168 167 166 167 166 165 166 166 163 161 160 159 156 154 151 149 144 138 133 127 121 117 114 110 104 99 95 91 85 79 71 65 64 66
169 169 169 168 168 170 171 171 170 169 169 169 168 167 167 167 165 164 164 162 159 156 154 152 147 141 135 128 125 122 118 113 108 102 97 91 85 79 71 63 63 66
168 169 170 170 171 172 173 173 172 171 170 170 169 169 169 169 167 167 167 166 162 159 156 154 150 144 138 131 128 127 124 119 113 107 101 95 89 80 71 63 63 63
169 171 172 172 173 174 174 174 173 171 171 172 172 172 172 172 171 170 171 169 165 161 158 155 153 148 142 136 133 133 132 128 121 114 108 101 94 83 71 64 62 60
172 173 174 175 175 175 175 174 173 172 173 174 175 176 177 177 176 174 173 171 167 165 163 159 156 153 148 143 142 140 139 139 134 127 121 109 98 86 74 64 60 56
174 175 176 176 176 175 175 173 173 174 175 175 176 179 182 182 180 177 174 172 169 168 166 163 161 159 154 150 150 149 148 150 149 145 138 123 107 90 75 67 60 50
175 176 176 176 176 175 174 173 173 175 175 176 177 181 182 181 181 179 175 172 170 169 167 166 165 163 159 156 155 156 155 155 158 160 155 142 120 98 79 70 62 45
175 175 176 175 175 174 174 173 174 175 175 177 178 180 179 178 178 178 176 173 171 170 168 167 167 166 163 161 161 161 159 154 155 161 165 159 129 102 85 69 56 39
175 175 175 175 175 174 174 174 174 174 175 175 176 176 175 174 176 175 174 174 173 171 170 168 168 168 167 167 168 168 168 160 155 158 167 169 148 109 89 64 40 28
176 175 175 175 174 174 174 174 174 173 173 173 174 174 173 172 173 173 172 173 174 172 171 170 170 169 171 173 175 176 177 170 159 156 163 173 171 140 98 53 15 16
176 176 175 174 174 174 174 174 174 172 172 174 175 175 173 171 171 171 172 173 175 174 173 172 171 172 174 179 182 183 184 181 176 171 168 174 178 166 135 23 357 9
176 176 175 174 174 174 174 174 174 174 174 177 177 175 172 171 170 171 172 173 175 175 173 171 171 171 176 182 185 187 189 190 190 185 175 175 179 179 186 324 352 4
176 175 174 174 174 174 175 175 175 175 174 177 178 175 172 171 170 171 171 172 175 175 171 169 168 168 174 182 186 188 193 193 190 186 180 181 185 192 214 302 350 359
176 175 174 173 174 174 175 175 174 174 174 176 177 174 172 171 171 171 172 171 173 175 172 168 167 169 177 188 196 201 200 195 191 187 184 183 186 195 214 280 345 354
178 176 174 173 174 175 175 175 174 173 173 174 175 173 171 171 171 171 172 173 172 174 174 170 169 173 183 195 202 203 199 195 191 187 183 180 181 186 199 223 324 351
177 176 175 174 175 176 176 175 173 172 172 173 175 174 171 171 171 170 172 174 175 176 178 175 172 173 179 186 183 177 181 189 190 187 184 183 182 185 199 211 261 345
176 176 177 177 176 178 179 177 173 172 171 172 174 172 168 168 169 169 170 174 177 179 180 177 171 165 164 166 162 159 168 182 189 191 190 190 193 197 201 203 236 320
180 181 183 183 181 181 180 178 176 172 170 170 171 168 164 164 166 167 168 171 174 174 172 168 163 157 155 156 154 155 163 173 181 189 193 196 199 197 195 199 223 284